ONEWEB-0038, 45145

Orbit data source: Space-Track

ONEWEB-0038, 45145 is a payload satellite owned by One Web (UK) in LEO that was launched on Thu, 06 Feb 2020 UTC via a SOYUZ-2-1B launch vehicle from the Tyuratam Missile And Space Complex (TTMTR). Payload-class satellites include a variety of spacecraft equipped with specific instruments for various scientific and technological missions. These include communications satellites like Starlink; space stations such as the ISS; scientific satellites like the Hubble; Earth observation satellites from companies like Planet Labs, Umbra, and HawkEye 360; GPS; miniature CubeSats for education and research; and military/defense satellites.

Loading next visibility...
Identifier
45145, 2020-008Q
Orbit
LEO
Last TLE update
14 hours ago
Origin
Manufacturer
One Web
Mission
Operational Commercial Communications
Bus & Motor
ARROW, Unknown motor
Mass
148 kg wet, ~140 kg dry
Launch date (UTC)
2020-02-06 (5 years ago)
Launch vehicle
SOYUZ-2-1B
Launch site
Tyuratam Missile And Space Complex (TTMTR)
Object type
Payload
Rocket body
Debris
Shape & HBR
Trap Box + 2 Pan, 5 m
Radar Cross Section
2.957 m², Large (>1 m²)

Expand to show TLE details & history

TLE from 14 hours ago
0 ONEWEB-0038
1 45145U 20008Q   25191.43560233  .00017587  00000-0  49562-1 0  9998
2 45145  87.8839  89.1785 0003087  97.3411 262.8068 13.11320250265536
Epoch: 2025-07-10T10:27Z
TLE epoch observation values (Epoch: 2025-07-10T10:27:16.041Z)
Latitude
0.00001°
Longitude
3.75974°
Altitude
1,221.239 km
Speed
7.244 km/s
True Right ascension
05h 56m 42s
True Declination
0° 00' 00"
Sunlit
Object was in daylight at epoch
Visualization orbit readout
Latitude
2.92009°
Longitude
-176.46161°
Altitude
1,220.176 km
Speed
7.245 km/s
Apparent Right ascension
20h 15m 49s
Apparent Declination
-23° 31' 51"
Sunlit
Object is in full shadow
Visualization observer readout
Local Sidereal Time
12:26:32
Azimuth
92.545° ESE
Elevation
-35.375°
Doppler factor
1
Orbital elements
Apogee altitude
1,217.519 km
Perigee altitude
1,212.83 km
Semi-major axis
7,593.312 km
Eccentricity
0.00031
Inclination
87.8839°
RAAN
89.1785°
Arg. of periapsis
97.3411°
True anomaly
Unknown
Mean anomaly
262.8068°
Eccentric anomaly
Unknown
Mean motion
3.28017 °/min
Orbital period
109.75 mins
BSTAR
0.049562
Loading maneuver chart data...
Loading SW <> Apogee altitude chart data...
Loading historical data...
Loading historical data...
Loading historical data...
Loading historical data...
Loading historical data...
Loading historical data...
Loading historical data...

ONEWEB-0038 Visibility forecast

Observer location: undefined°, undefined°

Span
Click to sort rows by Start time (UTC) header in descending order
Start Az.
Max El. time (UTC)
Max El. Az.
Max El.
End time (UTC)
End Az.
6 mins2025-07-11 03:34:20.996Z42.719° NE2025-07-11 03:37:20.996Z67.601° E13.587°2025-07-11 03:40:20.996Z93.547° ESE
13 mins2025-07-11 05:22:20.996Z0.556° NNE2025-07-11 05:28:20.996Z28.407° NE44.71°2025-07-11 05:35:20.996Z179.43° S
6 mins2025-07-11 07:15:20.996Z308.392° NW2025-07-11 07:17:20.996Z290.218° WNW15.398°2025-07-11 07:21:20.996Z255.829° W
7 mins2025-07-11 15:55:20.996Z98.953° ESE2025-07-11 15:58:20.996Z72.407° E15.515°2025-07-11 16:02:20.996Z38.383° NE
13 mins2025-07-11 17:41:20.996Z181.117° SSW2025-07-11 17:47:20.996Z290.083° WNW44.908°2025-07-11 17:54:20.996Z359.677° N
5 mins2025-07-11 19:36:20.996Z272.432° WNW2025-07-11 19:38:20.996Z289.947° WNW13.544°2025-07-11 19:41:20.996Z315.194° NNW
|